ECMWFFLT1_sfc_thetae_057.txt.gz
Theta_e
290 289 289 289 289 289 288 289 289 289 290 289 289 289 289 289 290 289 290 290 290 290 289 289 288 289 288 289 289 288 287 287 287 286 286 286 286 285 285 285 284 284 283 284 283 283 283 283 283 283 282 283 282 282 283 283 282 281 281 282 282 282
290 289 289 288 288 288 288 288 289 289 289 289 289 289 289 289 289 289 289 289 289 289 288 288 288 288 288 288 288 287 286 286 286 285 285 284 284 284 284 283 282 282 282 282 282 282 282 281 281 281 281 281 281 281 281 281 281 280 280 280 281 282
289 289 289 288 288 288 288 288 288 288 289 288 289 288 288 288 288 289 289 289 288 288 287 287 288 287 288 287 287 286 285 285 285 284 284 284 283 283 283 282 282 281 281 281 281 280 280 280 280 280 280 280 279 279 280 280 279 279 279 279 279 280
289 289 289 288 288 288 287 288 287 287 288 288 288 288 288 287 288 288 288 288 288 287 287 287 287 287 287 286 286 285 284 284 283 283 283 282 282 282 281 281 281 280 280 280 280 280 279 279 279 279 279 278 278 278 279 279 278 278 278 278 278 278
290 289 288 288 287 287 287 287 287 287 287 288 288 288 287 288 288 288 288 287 287 287 287 287 286 286 286 285 284 283 283 282 282 282 281 281 281 281 280 280 279 279 279 279 279 279 278 278 278 278 278 277 277 276 277 277 277 277 277 277 277 277
290 289 288 287 287 287 286 287 287 287 287 287 287 287 287 288 288 288 287 287 287 287 286 286 286 285 284 284 283 282 282 281 281 281 280 280 280 279 279 279 278 278 278 278 278 277 277 277 277 277 277 277 276 276 276 276 277 277 277 277 277 277
289 288 288 287 287 286 286 286 286 286 286 287 287 287 288 288 288 287 287 287 286 286 285 285 284 284 284 283 282 281 280 280 279 279 279 279 278 278 278 278 278 277 277 277 276 276 276 276 276 276 276 276 276 275 276 276 277 277 277 277 277 277
289 289 288 287 287 286 286 286 286 286 286 287 288 287 287 287 287 287 286 286 285 285 284 284 284 284 283 282 281 280 279 279 278 278 278 277 277 277 277 276 276 276 275 276 275 275 275 275 275 275 275 275 275 275 276 276 276 276 276 276 276 276
289 289 288 287 287 286 286 286 286 286 286 286 287 287 287 287 287 286 286 285 284 284 284 284 284 283 282 281 280 279 278 278 277 277 277 277 276 276 276 275 275 275 275 275 275 274 274 274 274 274 274 274 275 276 276 276 276 276 276 276 276 276
289 289 288 287 287 287 287 287 286 286 286 286 286 287 287 287 286 285 285 284 284 284 284 284 284 283 282 280 279 278 277 277 276 276 276 275 275 275 274 274 274 274 274 274 274 274 274 274 274 274 274 274 275 275 275 275 275 275 275 275 276 276
289 289 288 287 287 286 286 286 286 286 286 286 286 286 286 286 285 284 284 284 284 284 284 283 282 281 280 278 278 277 276 276 275 275 275 275 274 274 274 274 273 273 273 274 273 273 273 273 273 273 272 273 274 275 274 274 275 274 274 274 275 275
290 289 289 287 287 286 286 286 286 286 285 285 286 285 286 285 284 283 283 283 284 284 283 281 280 279 278 277 277 276 275 275 274 274 274 273 273 273 273 273 273 273 273 273 273 273 273 273 273 272 272 274 275 274 275 274 274 274 274 274 274 274
290 289 288 288 287 286 286 286 286 286 286 286 285 285 285 285 284 283 284 284 284 283 282 280 279 278 277 277 276 275 275 274 274 273 273 273 272 272 271 272 272 272 272 272 272 272 272 272 272 272 273 275 276 275 274 274 274 274 274 274 273 273
290 289 288 288 288 287 286 286 287 286 285 285 285 285 286 285 284 283 284 284 283 281 280 280 278 278 277 276 275 274 274 273 272 272 272 271 271 271 271 271 272 272 272 271 271 271 272 272 273 273 274 274 275 276 275 274 274 274 274 274 273 273
290 289 289 289 288 287 287 288 286 285 286 285 286 286 285 284 284 284 284 283 282 281 280 279 278 277 275 275 274 273 272 271 271 271 271 270 271 271 270 271 271 270 271 270 270 270 271 271 272 273 273 274 275 275 275 274 274 273 273 273 273 273
291 290 290 290 289 289 288 288 287 287 287 286 286 285 285 285 285 285 284 282 281 280 279 278 277 276 275 274 272 271 271 270 270 271 271 270 270 270 270 270 269 270 269 269 269 269 270 270 271 272 273 274 274 275 275 274 273 273 273 273 272 272
291 291 290 289 289 289 288 287 287 287 287 286 285 285 284 285 284 284 282 281 280 279 278 277 276 275 274 272 271 271 270 270 270 270 270 270 270 270 269 269 268 269 268 268 268 268 268 269 271 272 273 273 274 275 275 273 273 272 272 272 272 272
291 290 290 290 289 288 288 287 287 287 286 286 285 284 284 284 284 283 282 280 280 278 278 276 275 274 273 271 271 270 270 270 270 269 270 270 270 270 269 269 268 267 267 267 266 266 266 268 271 272 272 273 273 274 273 272 271 271 271 271 271 271
292 291 290 289 289 288 287 287 287 286 285 285 284 284 284 283 283 282 281 280 279 278 277 276 275 274 272 271 270 270 270 270 269 269 270 268 269 268 268 267 267 267 266 266 265 265 265 266 268 270 271 272 273 273 271 271 270 270 270 270 271 271
290 289 289 288 288 287 287 287 286 285 284 284 283 283 283 282 282 282 281 280 279 277 277 276 275 273 272 271 270 270 270 270 270 269 269 268 268 268 267 267 266 266 266 265 264 265 264 265 267 269 271 272 272 272 271 271 270 269 270 270 271 271
288 288 288 287 286 287 287 286 286 285 283 283 282 282 282 282 282 282 281 280 279 277 276 276 274 273 272 271 271 270 270 270 269 269 267 267 268 267 267 266 265 265 265 265 264 265 265 264 265 268 270 271 272 272 271 270 270 269 269 270 270 271
286 285 286 286 286 286 285 285 284 283 283 282 282 281 281 282 282 283 281 280 278 277 275 275 273 273 271 271 270 269 269 269 268 267 266 266 266 266 266 265 265 264 264 264 264 263 264 264 264 266 269 270 271 272 271 271 270 269 269 270 270 270
285 285 285 286 285 284 284 284 283 283 283 282 281 280 281 282 283 282 280 280 277 276 274 273 272 271 271 270 269 268 267 268 267 266 265 265 266 265 265 264 263 263 263 263 264 264 264 264 264 265 269 270 271 272 272 271 270 270 270 270 271 271
284 285 285 285 285 283 283 283 282 282 282 281 280 281 282 282 282 281 280 278 277 275 273 272 271 270 269 268 267 266 265 266 266 265 264 265 265 262 261 261 262 262 263 264 264 264 263 265 266 265 267 270 271 272 273 271 271 272 271 271 271 272
284 284 284 284 282 282 282 282 281 281 281 280 281 282 282 282 282 280 279 277 275 273 271 270 268 267 266 265 265 265 264 264 262 263 263 263 263 262 261 261 261 262 263 263 265 265 265 265 265 268 267 269 271 272 273 274 273 275 273 272 271 271
284 284 284 282 281 280 281 280 280 280 280 280 282 282 281 281 280 278 276 274 273 271 269 267 266 265 264 264 264 263 263 263 262 261 262 262 262 263 263 264 263 263 263 263 265 265 266 266 266 268 270 270 272 272 273 274 274 275 273 273 272 273
284 283 282 281 279 279 279 280 280 279 279 281 282 281 280 278 276 275 274 273 271 269 267 265 264 263 263 263 263 263 263 262 261 262 263 262 263 264 264 265 265 264 264 265 264 265 266 267 268 268 270 271 271 272 273 273 274 274 275 273 274 273
282 281 281 279 278 278 278 278 279 278 280 281 281 280 278 275 274 273 273 272 270 268 265 263 262 262 262 262 263 263 264 263 262 264 265 264 264 264 264 265 265 264 264 264 264 265 266 266 267 267 268 270 270 271 272 273 273 274 275 274 274 274
280 280 280 280 278 277 277 276 278 279 280 279 279 277 275 273 272 271 271 270 268 266 263 263 263 262 261 261 263 263 264 265 264 264 265 265 265 265 264 265 264 264 264 263 264 265 265 266 266 267 268 268 269 270 270 271 272 273 274 273 272 272
279 279 279 279 280 278 276 276 276 277 278 275 275 273 272 271 271 271 270 269 267 265 263 264 263 262 262 261 262 263 263 264 264 264 264 265 265 264 264 264 264 264 264 264 265 265 265 265 266 267 267 268 269 270 271 271 271 272 272 271 271 270
278 279 279 280 281 280 277 275 276 276 276 275 271 271 271 271 269 270 269 267 266 265 263 264 264 264 264 262 262 263 264 264 263 264 264 266 266 266 266 265 265 265 265 265 265 264 264 265 265 267 270 270 271 271 271 271 271 271 272 272 273 269
279 279 279 280 281 280 278 276 275 275 275 273 270 270 270 270 269 268 268 266 266 265 263 264 264 264 265 264 263 263 263 264 266 265 264 264 266 268 269 268 265 265 265 264 265 266 265 265 267 271 272 272 273 274 274 274 274 274 274 274 273 270
278 278 278 279 279 279 277 276 274 273 273 272 270 269 269 269 268 268 268 266 266 265 264 264 264 263 264 264 264 264 263 263 264 268 269 268 267 268 269 270 270 270 270 266 265 267 271 272 272 273 273 274 274 274 273 273 274 274 273 272 269 266
277 277 277 278 278 278 276 275 273 272 271 270 268 268 269 268 269 269 268 267 266 265 264 265 264 263 263 263 263 263 263 263 264 265 269 270 270 270 270 271 271 272 272 273 272 270 269 271 273 273 273 272 273 273 273 273 274 272 271 270 269 264
277 278 278 278 276 276 275 273 272 270 268 267 267 267 267 267 268 269 268 267 266 265 264 264 264 263 263 262 262 262 262 263 263 264 265 267 270 271 271 271 271 272 272 272 272 272 272 272 272 272 272 272 272 272 272 273 272 270 270 269 265 262
278 278 277 276 275 275 273 272 269 267 266 265 265 266 266 266 266 267 268 267 265 264 264 263 264 263 263 263 263 263 262 262 263 263 264 263 263 265 267 270 270 271 271 271 271 271 271 271 271 271 271 271 271 272 272 272 268 269 269 267 262 261
276 275 274 273 273 271 270 270 266 264 264 264 264 264 265 265 265 266 265 263 263 265 264 264 264 264 264 263 262 262 261 262 262 262 261 261 261 262 263 263 265 267 269 267 267 268 269 269 269 270 270 271 271 271 272 270 266 264 264 263 260 260
273 273 271 270 269 268 269 268 263 262 263 263 263 263 263 263 264 264 264 263 263 264 264 264 264 264 263 262 262 262 261 261 261 261 260 260 260 260 260 260 262 262 264 266 267 267 268 269 269 269 269 270 270 271 269 265 264 263 262 261 260 260

ECMWFFLT1_sfc_thetae_060.txt.gz
Theta_e
287 287 286 286 285 286 285 286 286 285 284 285 285 285 285 285 286 286 286 286 287 286 285 284 284 284 284 284 284 283 282 282 282 281 281 281 281 281 280 279 278 278 278 277 277 277 277 277 277 277 277 277 276 277 277 276 276 276 276 277 277 277
287 286 286 285 285 285 284 285 285 284 285 285 285 285 285 285 285 285 285 285 286 285 284 284 284 284 284 283 283 282 281 281 281 280 279 280 280 279 278 278 277 277 277 277 277 276 276 276 276 276 276 275 275 275 276 276 275 275 274 275 276 278
286 286 285 284 284 284 284 285 284 284 285 284 285 285 284 284 284 285 285 285 284 283 283 283 283 283 283 282 282 281 281 281 281 279 279 279 278 278 277 277 276 276 276 276 276 276 276 275 275 275 275 275 274 274 275 275 275 274 274 274 274 275
286 285 285 284 284 284 283 284 284 283 284 284 284 284 284 283 284 284 284 284 283 283 283 283 282 282 282 281 281 280 280 279 279 279 278 277 277 277 277 276 276 276 276 276 275 275 275 275 275 274 274 274 274 273 276 276 273 273 273 273 273 273
286 285 285 284 283 283 283 283 283 283 283 283 283 283 283 283 283 284 283 283 283 282 282 282 282 282 281 280 279 279 279 278 278 278 277 277 277 276 276 275 275 276 275 275 275 274 275 275 274 274 274 273 273 272 272 274 273 273 273 273 273 273
285 285 284 283 283 283 283 283 283 283 283 283 283 283 283 283 283 283 283 283 282 282 282 281 281 281 280 279 278 278 277 277 277 277 277 276 276 276 275 275 275 275 274 274 274 274 273 273 273 273 273 273 273 272 272 272 272 273 273 273 272 272
285 285 284 284 283 283 283 282 283 283 283 283 283 283 283 283 283 283 283 282 282 282 281 281 281 280 279 278 277 277 276 276 276 276 275 275 275 275 274 275 274 274 274 274 273 273 273 273 273 273 272 272 272 272 272 272 273 273 273 273 273 275
286 285 284 284 283 283 283 283 283 283 283 283 283 283 283 283 283 283 282 282 282 281 281 280 280 279 278 277 276 276 276 275 275 275 274 274 274 273 273 272 273 273 272 272 272 272 272 272 272 272 271 271 272 272 272 273 273 273 273 272 273 273
285 285 284 284 283 283 283 283 282 282 283 282 283 283 283 283 283 282 282 282 281 281 280 280 279 279 278 277 276 275 275 275 275 274 273 273 273 272 272 272 272 273 271 272 272 271 271 272 271 271 271 271 272 272 273 273 272 273 272 273 273 273
286 285 284 284 283 283 283 283 283 283 282 282 283 283 283 283 282 282 282 281 281 281 281 280 279 278 278 276 276 275 276 275 274 273 273 273 272 272 272 271 272 271 271 271 271 271 271 271 271 271 270 271 272 272 272 272 272 272 272 272 273 272
286 285 285 284 283 283 282 282 282 282 282 282 283 283 283 283 282 282 281 281 280 280 280 280 279 278 277 276 275 275 274 274 273 273 272 272 272 273 271 271 271 271 271 271 271 271 271 271 271 271 270 270 272 273 273 273 272 272 272 272 272 272
287 286 285 284 283 283 282 282 282 282 282 283 284 284 284 283 282 281 281 280 280 281 280 280 279 278 277 276 276 275 274 273 272 272 271 271 270 270 270 270 270 270 270 270 270 270 271 271 271 273 274 275 274 273 274 274 273 272 272 271 271 271
287 286 285 285 284 283 283 283 283 282 283 283 283 283 284 283 282 281 281 280 280 280 279 279 277 276 276 276 275 274 273 272 271 270 270 269 268 269 269 269 270 269 270 270 269 269 270 270 271 274 275 276 276 275 274 273 273 273 273 272 271 270
288 287 286 285 285 284 283 283 283 283 283 283 283 283 284 283 282 281 281 280 280 280 279 278 277 277 276 275 274 273 272 271 270 270 269 268 268 268 267 268 269 269 269 269 269 268 269 269 274 275 275 276 276 276 275 274 273 273 273 273 272 272
289 288 287 286 285 284 284 284 284 283 284 283 284 283 283 282 281 281 281 281 281 280 280 279 278 277 275 274 273 271 270 270 270 269 268 268 268 267 267 269 269 268 268 268 268 267 267 268 273 275 275 275 276 276 276 274 273 272 272 273 273 272
289 288 287 287 286 285 285 285 285 285 284 284 283 282 282 281 281 281 281 281 281 281 279 278 277 276 275 273 271 270 269 269 269 268 268 268 268 268 267 266 267 267 267 267 267 266 267 267 271 274 275 275 276 276 276 274 273 273 272 272 272 271
289 288 287 287 286 286 285 285 285 284 283 283 282 282 281 281 281 281 281 281 280 279 279 278 276 275 273 272 270 269 269 268 268 268 268 268 268 267 267 267 266 266 265 264 265 265 265 266 272 274 275 275 276 276 276 274 273 272 272 272 271 270
289 288 288 288 287 286 286 285 285 284 284 283 282 282 281 281 281 281 281 280 279 278 278 277 275 274 272 271 270 269 269 268 268 268 268 267 267 266 266 266 266 266 265 264 263 263 264 265 272 273 274 275 275 275 273 272 271 271 270 269 270 270
288 287 287 287 287 286 285 285 285 284 283 282 282 282 281 281 280 280 281 280 279 279 278 277 275 273 272 270 269 268 268 268 267 267 267 266 268 267 266 265 265 264 264 263 263 263 263 263 268 272 274 274 275 274 271 270 270 270 269 270 270 271
286 286 287 286 285 285 285 285 284 284 282 282 282 281 280 280 280 281 281 280 279 279 278 277 275 274 272 270 270 269 269 269 268 267 267 267 266 267 265 264 263 262 263 263 263 263 261 262 266 271 273 274 274 273 271 270 269 269 269 269 270 270
286 285 285 285 284 284 284 284 284 283 282 282 281 281 280 280 281 281 281 280 280 279 277 276 275 274 272 271 271 270 269 269 268 267 266 266 265 265 264 264 263 261 261 262 262 266 264 262 265 270 272 274 274 273 271 270 269 268 269 269 269 271
283 283 283 284 284 283 283 283 283 282 282 281 281 280 280 281 281 281 281 281 279 278 276 275 275 274 273 272 270 269 269 268 266 266 266 265 265 264 263 262 262 262 262 262 262 262 263 263 262 264 270 272 273 274 272 270 269 268 268 269 269 269
283 283 283 282 282 282 282 282 282 282 281 280 280 280 281 281 281 281 281 279 278 276 275 275 274 274 273 272 270 269 268 267 267 265 264 264 263 263 262 262 261 261 261 261 262 261 262 262 262 263 270 272 273 274 274 271 270 270 269 269 269 270
280 281 281 281 282 282 282 282 282 281 280 280 280 281 282 281 280 280 278 278 277 276 275 274 273 272 271 269 268 267 266 265 265 264 263 263 262 262 261 260 260 260 260 261 261 261 261 263 266 262 267 271 273 274 275 272 271 271 270 269 270 270
280 280 280 280 280 280 281 281 281 280 280 279 281 282 281 279 278 278 278 277 276 275 274 272 271 270 269 267 267 267 265 264 263 262 262 262 261 261 260 259 259 259 260 260 261 262 262 262 263 268 266 270 272 274 274 275 273 274 273 271 271 271
279 279 278 278 279 279 280 281 280 279 279 280 282 278 276 277 277 277 276 276 275 273 271 270 268 267 266 266 265 265 264 262 261 261 261 261 261 260 259 259 259 259 259 260 261 262 262 263 262 266 270 269 272 274 274 275 275 276 273 273 272 272
279 278 276 276 276 277 278 279 279 278 278 280 278 278 277 277 276 276 275 274 273 271 269 267 266 265 264 264 265 264 263 261 260 260 260 260 260 260 260 260 261 260 260 261 261 262 263 263 263 263 267 271 272 274 274 275 275 276 276 273 273 274
277 276 275 274 274 275 275 276 277 278 279 277 275 276 275 275 274 274 274 273 271 269 267 265 263 262 262 262 263 264 263 262 261 261 261 260 260 261 261 262 262 262 262 262 262 262 263 263 263 264 265 269 271 272 273 274 274 274 275 274 274 275
276 276 274 274 272 273 273 274 275 278 276 272 274 274 274 273 274 273 271 271 269 266 266 265 264 262 261 261 261 262 262 262 261 262 262 261 261 261 262 262 262 262 262 262 261 261 262 262 263 263 263 265 265 265 268 270 271 273 274 273 272 273
276 276 275 276 275 274 273 274 275 276 273 271 272 271 272 272 273 273 272 270 268 266 265 265 264 262 261 261 261 262 262 262 262 262 263 262 263 262 263 263 263 263 263 262 261 261 261 262 261 263 264 264 264 265 266 268 270 270 270 270 271 271
276 276 276 277 277 275 273 273 274 272 273 271 268 270 272 272 269 269 267 266 266 264 264 264 263 262 261 260 260 261 262 262 262 263 263 263 265 265 265 264 264 264 264 264 263 262 263 263 262 264 269 267 270 268 266 268 269 270 270 272 273 271
276 276 276 277 274 274 274 273 273 270 270 269 266 269 271 270 268 267 267 266 266 264 263 263 262 262 262 261 260 260 260 265 267 265 263 263 268 271 272 270 266 265 265 264 265 265 264 264 263 270 272 272 273 274 274 273 273 274 273 274 275 272
275 273 273 275 272 274 274 273 270 269 268 269 268 268 268 268 268 267 266 265 265 265 263 263 262 262 262 261 261 260 261 259 264 270 271 270 269 271 272 273 273 272 271 266 264 267 271 270 271 271 272 273 274 274 275 275 275 276 275 275 271 267
272 274 275 274 273 274 272 270 268 269 269 268 267 268 268 268 269 268 267 266 265 265 264 263 263 262 262 261 262 261 261 261 260 262 269 272 272 271 272 272 273 273 273 272 269 266 266 270 273 273 274 274 275 275 275 276 276 275 275 275 274 266
275 274 273 272 271 270 270 270 267 267 267 267 267 267 268 267 268 268 267 266 265 264 264 263 263 262 262 262 261 261 261 261 262 262 262 267 273 273 273 273 273 273 274 274 274 274 271 270 272 273 274 274 274 275 274 274 275 275 275 275 269 264
274 274 273 271 270 271 268 269 266 266 266 265 266 266 267 267 267 267 267 266 265 264 263 263 263 262 262 262 262 261 261 261 262 262 262 262 263 268 271 273 274 274 274 274 275 274 275 275 275 275 274 274 274 274 274 273 272 274 275 272 265 263
271 270 270 271 269 268 268 268 265 263 264 264 265 265 265 265 265 264 264 264 264 264 263 263 263 262 262 261 261 261 261 261 261 261 261 261 262 262 263 262 265 270 273 271 271 272 273 273 274 274 273 273 273 273 273 273 270 268 268 267 263 262
269 268 267 268 267 267 267 266 261 260 262 262 263 263 264 264 264 264 264 262 264 263 263 262 262 262 262 261 261 260 260 260 260 260 260 260 259 260 259 260 261 262 266 269 270 271 271 271 272 272 272 272 272 272 272 268 267 265 265 264 262 260

ECMWFFLT1_sfc_thetae_063.txt.gz
Theta_e
285 285 285 285 285 285 285 284 284 284 284 285 285 285 285 285 285 284 284 284 285 284 284 283 283 283 283 283 282 282 282 281 281 281 281 280 280 280 279 278 277 277 277 277 276 276 276 276 276 275 275 275 275 276 275 275 275 274 274 274 275 276
285 285 285 284 284 284 284 283 284 283 284 284 284 284 284 284 284 284 284 284 284 283 283 283 283 283 283 282 282 281 281 281 281 280 279 279 279 278 277 277 277 276 276 276 276 276 275 275 275 275 274 275 274 274 275 274 274 273 273 274 274 276
285 285 284 284 283 283 283 283 283 284 284 284 284 284 283 284 283 284 283 283 283 283 283 282 282 282 282 281 281 281 280 280 280 279 279 278 278 277 277 277 276 276 276 276 276 275 275 274 274 274 274 274 273 273 274 273 273 273 273 273 273 274
285 284 283 282 283 282 283 283 283 283 283 283 283 283 283 283 283 284 283 283 283 282 282 282 282 282 281 281 280 280 280 279 279 278 278 277 277 277 277 276 276 276 276 275 275 274 274 273 274 273 273 273 273 272 274 273 272 272 272 272 272 273
285 284 283 283 283 283 282 282 283 283 283 282 283 283 283 283 283 283 283 282 282 282 282 282 281 281 281 280 280 279 279 278 278 278 277 277 276 276 276 276 276 275 275 275 274 274 273 273 272 272 272 272 271 271 271 272 272 272 272 272 272 272
284 283 283 282 282 282 282 283 282 282 282 283 283 283 282 283 283 283 282 282 282 282 281 281 281 280 280 280 279 278 278 278 277 277 277 276 276 276 275 275 275 275 274 274 273 273 272 272 272 272 272 272 271 271 272 271 272 272 272 272 272 272
283 284 284 283 283 282 282 283 282 282 282 282 283 283 282 283 282 282 282 282 281 281 281 281 280 280 279 279 278 278 277 277 276 276 276 275 275 275 275 274 274 274 274 274 273 272 272 272 271 272 271 271 271 271 271 271 272 272 272 272 272 275
285 284 284 283 283 282 282 283 283 282 282 282 283 282 282 282 282 282 282 282 281 281 281 280 280 280 279 278 277 277 276 276 276 276 275 275 275 274 274 274 274 274 273 272 272 271 271 270 270 270 270 270 270 271 272 272 272 272 272 272 272 272
284 284 284 283 283 282 282 283 282 282 282 282 282 282 282 282 282 282 282 281 281 281 280 280 280 279 278 278 277 276 275 275 275 275 275 275 274 274 273 273 273 272 272 271 271 271 271 270 270 270 269 270 271 271 272 271 271 272 272 272 272 272
285 284 284 283 283 282 282 282 283 282 282 282 282 282 282 283 282 282 282 281 281 281 280 280 280 279 278 277 276 275 275 275 274 274 274 274 274 273 273 272 272 271 271 270 270 270 269 269 269 269 270 270 270 270 270 271 271 271 271 271 272 272
285 285 284 283 283 282 282 282 282 282 282 282 282 282 282 283 283 282 282 281 281 281 280 280 280 278 277 276 275 275 274 274 274 273 273 273 273 273 272 271 271 271 270 270 270 269 270 270 270 270 270 270 270 270 271 271 270 270 270 270 270 270
286 285 285 284 283 283 282 282 282 282 282 282 282 283 284 283 283 282 282 281 281 281 281 281 280 279 278 276 275 275 275 274 273 273 273 274 274 273 271 270 270 270 270 270 269 269 270 270 270 273 276 275 271 271 272 273 272 271 270 269 269 269
286 286 285 284 284 283 283 283 283 282 282 282 283 283 283 283 283 283 282 281 281 281 281 280 279 278 277 277 276 275 274 274 273 274 274 273 272 271 270 270 270 269 269 269 269 269 269 270 270 275 277 278 277 274 273 272 271 272 272 271 270 269
287 286 286 285 285 284 284 283 283 282 282 283 283 283 283 283 283 282 282 282 282 281 281 280 279 278 277 277 276 275 275 274 274 273 272 271 270 269 268 268 269 269 269 269 268 268 269 269 274 277 278 278 278 277 274 273 273 272 272 272 271 270
288 287 287 286 286 285 285 284 283 282 283 283 283 284 283 283 283 283 282 282 282 281 281 280 279 278 278 277 276 275 274 273 273 272 271 271 271 268 268 269 269 268 268 268 268 268 268 268 275 277 278 278 278 278 277 274 273 272 272 272 272 272
289 288 288 288 287 286 285 285 284 283 283 283 283 283 283 283 283 282 282 282 281 281 281 280 279 279 278 277 276 274 273 273 272 272 271 270 269 269 268 267 267 267 267 268 267 267 267 267 273 277 278 278 278 278 277 274 273 272 272 272 272 272
289 289 288 287 286 286 285 284 284 283 282 282 282 282 282 282 282 282 282 282 281 281 280 280 279 279 278 276 275 274 273 273 272 271 270 270 270 269 268 268 267 267 267 266 266 266 266 267 274 276 278 278 278 278 277 274 273 272 272 272 272 271
289 289 288 287 285 284 284 284 284 283 282 282 282 282 282 283 282 282 282 281 281 280 280 279 279 279 277 276 274 273 273 272 271 271 270 269 268 266 266 265 265 266 266 266 265 265 266 266 274 276 277 278 278 278 275 274 272 271 271 270 270 269
289 288 287 285 285 285 284 284 283 283 282 282 282 282 282 282 282 282 282 281 281 280 280 279 279 278 277 275 274 273 273 272 271 270 269 268 268 268 267 266 266 266 266 265 264 265 265 264 270 275 277 278 278 277 273 272 270 269 268 268 269 270
286 286 287 285 285 285 285 284 283 283 282 282 282 282 282 282 282 282 282 281 280 280 279 279 279 278 276 275 274 273 274 273 272 270 269 269 268 267 267 266 265 265 265 265 264 265 264 264 267 273 276 277 278 276 271 271 269 268 268 268 269 269
287 286 285 285 285 285 284 284 283 283 282 281 281 281 281 281 281 281 280 280 280 280 280 280 279 278 276 275 275 274 273 272 271 270 268 268 268 268 266 265 265 263 263 263 264 266 265 263 265 272 275 277 277 276 272 270 268 268 268 268 268 269
285 284 285 285 285 283 283 283 283 282 281 280 280 279 280 280 281 281 280 280 280 280 280 280 279 278 277 276 275 274 273 271 268 268 268 267 266 266 265 265 264 264 263 263 262 263 265 264 263 265 273 276 277 277 273 270 268 267 267 268 268 267
285 284 284 284 282 282 282 282 282 281 281 280 279 279 280 281 280 280 280 280 280 279 279 279 279 278 277 276 275 273 270 269 269 267 267 266 265 264 263 263 263 263 262 262 263 262 262 263 263 264 271 274 276 277 276 270 269 268 268 268 268 268
281 281 280 280 281 281 281 282 282 281 279 279 279 280 281 280 280 280 279 279 279 278 278 278 278 278 276 273 271 270 269 267 267 267 266 265 264 264 263 262 262 262 262 261 261 261 262 263 266 263 268 272 275 277 278 273 271 270 269 269 268 268
279 279 278 277 278 280 281 281 281 280 279 279 281 281 280 279 279 279 279 278 278 277 277 277 276 275 273 271 270 270 269 266 265 264 264 264 263 263 263 262 261 261 261 260 261 261 261 261 262 268 266 270 273 276 277 278 275 275 272 269 268 268
277 277 276 276 277 278 281 282 281 279 279 280 282 278 277 276 276 276 277 276 276 276 275 273 272 272 271 270 269 268 267 265 264 263 263 263 263 263 262 261 261 260 260 261 261 261 261 261 261 265 270 269 272 274 277 278 278 277 273 272 270 270
278 277 275 276 275 276 278 279 281 279 279 280 278 278 277 276 275 276 276 276 275 274 273 271 271 270 269 268 268 268 266 264 263 263 261 262 263 262 263 262 261 261 261 261 261 262 262 262 262 262 265 271 272 275 276 277 278 278 278 274 273 273
275 276 276 274 273 274 275 276 279 279 280 276 275 274 275 275 275 276 276 275 274 273 270 270 267 267 267 267 268 269 268 266 264 265 263 262 263 262 263 263 261 261 261 261 262 262 262 262 262 262 263 267 270 272 275 276 277 277 277 277 275 276
275 274 273 274 272 273 273 273 276 278 274 273 274 274 275 275 276 275 274 274 272 269 269 270 268 266 265 265 265 265 265 265 264 264 263 262 263 262 262 263 262 262 262 262 262 261 261 261 262 263 264 265 266 267 269 272 273 276 276 275 274 275
275 274 273 275 275 273 273 273 275 274 269 268 273 273 274 274 274 275 273 272 270 269 268 269 266 266 265 264 265 265 264 264 264 265 265 263 264 263 263 263 263 263 263 263 262 261 260 261 262 263 264 265 265 265 266 267 268 268 269 270 271 270
275 275 275 276 275 273 272 273 273 271 272 270 269 272 274 273 271 269 267 267 267 267 266 267 266 266 265 264 263 264 265 265 264 265 266 263 262 264 265 264 264 264 263 263 263 262 261 262 262 264 269 267 269 267 266 266 267 268 268 270 272 269
274 274 274 274 272 271 272 272 271 269 271 268 267 271 273 270 269 268 268 268 268 266 265 265 264 263 264 263 263 262 261 264 268 266 264 263 268 270 271 270 265 264 264 264 264 264 265 265 265 269 272 272 273 273 273 272 271 272 270 271 274 273
272 271 271 273 271 271 272 270 269 267 267 268 267 269 270 269 270 269 267 266 267 267 266 265 264 263 262 262 262 261 262 261 264 271 272 270 269 271 273 274 274 273 271 266 263 266 272 272 272 272 273 274 274 275 275 275 275 275 275 275 273 271
272 273 275 273 272 271 269 269 267 269 268 268 268 269 270 270 271 270 270 268 267 267 265 265 264 263 262 262 261 261 261 262 262 262 270 273 273 272 273 274 275 275 275 274 271 266 265 271 273 273 273 274 274 275 275 276 276 276 277 277 277 272
275 274 273 271 270 269 268 269 268 267 267 268 268 268 269 269 270 270 269 267 266 266 265 264 264 263 263 262 261 261 261 261 262 263 262 266 273 274 274 274 275 275 276 276 275 274 270 270 272 273 274 274 275 275 275 276 277 277 277 277 274 271
272 271 270 269 269 269 268 268 266 266 267 266 266 267 269 269 269 269 269 267 266 265 265 265 264 264 263 263 263 262 261 262 263 262 262 261 260 266 272 275 275 275 275 276 276 275 275 274 274 274 274 275 275 276 276 276 274 277 277 275 271 270
270 269 269 269 267 267 266 267 266 263 263 264 265 266 266 267 267 266 266 265 265 266 265 265 265 264 263 262 262 261 261 261 261 262 261 261 262 263 265 267 270 273 275 273 274 275 276 276 276 276 276 276 276 276 276 276 273 271 271 271 270 267
268 267 266 266 266 266 266 266 261 260 261 261 262 263 264 264 264 264 265 263 264 264 263 263 263 263 262 262 261 261 260 260 260 261 260 260 260 262 263 263 265 265 267 269 270 271 272 273 274 274 274 274 275 275 275 270 268 268 268 267 268 266

ECMWFFLT1_sfc_thetae_069.txt.gz
Theta_e
288 289 289 289 289 290 290 290 288 287 287 286 286 285 284 284 284 284 284 284 284 283 283 282 282 282 282 281 281 280 280 279 279 279 279 279 279 279 278 278 278 277 277 277 277 277 276 276 276 276 275 275 275 275 275 274 274 274 274 275 275 274
288 288 288 288 288 288 289 288 287 286 286 285 285 285 284 284 283 283 283 283 284 283 282 282 282 282 281 281 280 280 280 280 279 279 279 279 279 279 278 278 277 277 277 276 277 276 276 276 275 275 275 275 275 274 274 274 274 274 274 274 274 274
287 287 287 288 287 287 287 287 286 286 285 285 285 284 283 283 283 283 283 284 283 283 282 282 282 281 281 280 280 280 280 280 280 280 279 279 279 278 278 277 277 277 276 276 276 276 276 275 275 275 274 274 274 273 273 273 273 273 273 273 273 273
286 286 286 286 286 286 286 285 285 285 284 285 284 284 284 284 283 284 284 284 284 283 282 282 281 281 281 280 280 280 280 280 280 280 279 279 278 278 278 277 277 276 276 276 276 275 275 275 274 274 274 274 273 273 273 273 273 273 272 272 272 272
286 286 286 286 286 286 285 284 285 285 284 284 284 284 284 284 284 284 284 284 283 283 282 282 281 281 280 280 280 280 280 280 279 279 279 278 278 277 277 277 276 276 277 276 275 275 274 274 274 274 273 273 273 273 273 273 273 272 272 271 271 272
285 285 285 285 285 286 285 284 284 285 285 285 284 284 284 284 284 284 283 283 283 283 282 282 281 281 281 280 280 280 280 280 279 279 279 278 277 277 277 277 277 277 277 276 275 274 274 274 275 274 273 273 273 273 274 273 272 272 271 271 271 271
284 284 285 285 285 286 285 285 284 284 284 284 284 284 284 284 284 283 283 283 282 282 282 282 281 281 281 280 280 280 280 280 279 279 278 277 277 277 277 277 277 277 276 276 275 274 274 274 274 274 273 273 273 273 273 272 271 271 271 271 271 273
284 284 284 285 285 286 285 285 284 284 284 284 285 284 284 284 283 283 283 283 283 282 282 282 281 281 281 280 280 280 280 280 279 279 278 278 277 277 277 277 277 277 276 275 275 275 275 274 274 274 274 273 272 271 272 272 272 271 271 271 271 271
284 284 284 285 285 285 285 285 284 284 284 284 284 284 284 283 283 283 283 283 282 282 282 282 282 282 281 281 280 280 280 280 279 279 278 278 278 277 277 277 276 276 276 275 274 274 274 274 274 274 273 272 272 272 273 272 271 271 271 270 270 270
284 284 284 284 284 285 285 285 284 284 283 283 283 283 284 284 283 283 283 283 282 282 282 282 282 281 281 281 280 280 280 280 279 279 278 278 277 277 277 276 276 276 276 275 274 274 274 274 274 273 272 272 273 273 273 272 271 271 270 270 270 270
284 284 284 284 283 283 284 284 284 283 283 283 283 283 283 283 283 283 283 282 282 282 282 282 281 281 281 280 280 280 279 279 279 278 278 278 277 277 277 277 276 275 275 275 275 274 274 274 273 273 272 272 273 273 272 272 271 271 271 270 270 270
284 284 284 283 283 283 283 284 284 284 283 283 283 283 283 283 283 282 282 282 282 282 282 281 281 281 280 281 280 280 279 279 279 278 277 277 277 277 276 276 276 275 275 274 274 274 273 273 273 275 277 276 273 272 272 272 271 271 271 270 270 270
284 284 284 284 283 283 284 284 284 284 283 283 283 283 283 283 283 283 283 282 282 282 281 281 281 281 281 281 281 280 279 279 278 277 277 277 276 276 275 275 275 275 275 274 274 273 273 273 273 277 279 280 279 274 272 272 271 270 270 270 270 269
284 284 284 284 284 284 284 284 284 283 283 284 283 283 283 283 283 282 282 282 283 283 282 282 282 282 281 281 280 280 279 278 278 277 277 276 275 275 275 275 275 274 274 274 274 273 273 273 276 279 280 281 281 278 272 271 270 270 270 270 270 269
285 285 285 284 284 284 284 284 283 283 284 283 283 283 282 282 282 282 283 283 283 283 282 282 282 282 281 281 280 279 278 278 277 277 276 276 275 275 274 275 275 274 274 273 273 273 273 273 277 279 281 282 282 281 275 270 270 270 269 270 270 269
286 286 285 285 285 285 284 284 284 284 284 283 282 282 282 282 282 283 283 283 283 283 282 282 282 281 281 280 280 279 278 277 277 277 277 276 275 275 275 274 274 274 273 273 273 273 273 272 276 280 281 282 283 283 279 269 270 270 269 270 270 270
286 286 285 285 285 284 284 283 284 284 283 283 282 282 282 283 283 283 283 283 283 283 282 282 282 281 281 280 279 278 278 277 277 277 276 276 276 275 274 274 274 274 274 273 273 273 272 272 276 280 282 282 283 283 282 272 272 271 271 271 271 271
287 287 287 287 286 285 285 284 285 284 283 284 283 283 283 283 283 283 283 283 283 282 282 282 281 281 281 280 279 278 278 277 277 276 276 276 276 275 275 275 275 274 274 273 273 272 272 272 277 279 281 283 283 284 280 274 273 272 272 271 272 271
288 288 287 286 286 286 285 285 285 284 284 283 283 283 283 283 283 283 283 283 283 282 282 282 281 281 280 279 278 277 277 277 277 277 276 275 276 275 275 274 274 274 274 273 272 272 272 272 276 279 281 282 283 283 278 273 273 273 272 272 272 272
288 287 288 286 286 286 286 285 285 284 283 283 283 283 282 282 282 283 283 283 283 282 282 282 281 280 280 279 278 277 278 278 277 277 276 276 275 275 275 275 274 274 274 273 272 272 272 272 274 279 281 282 283 282 277 274 273 273 273 272 272 272
288 287 287 286 286 286 285 285 285 284 283 283 283 283 282 282 283 283 283 283 283 282 282 281 281 280 279 279 278 278 278 278 277 277 277 276 276 276 276 275 275 274 273 272 272 273 272 272 273 277 280 282 282 282 276 273 272 272 272 272 271 271
287 286 286 286 286 285 285 285 285 284 283 283 283 282 282 283 283 283 283 283 282 282 281 281 281 280 280 279 279 278 279 279 278 277 276 276 276 276 276 274 274 273 273 271 270 270 271 270 269 272 279 281 282 283 277 272 272 272 272 272 271 269
287 287 286 286 285 285 285 285 284 284 283 282 282 282 283 283 283 283 282 282 281 281 281 281 281 280 280 280 280 280 278 278 278 276 275 274 273 273 272 272 272 272 272 271 269 269 269 270 269 270 276 279 282 283 281 272 273 273 272 271 270 269
283 283 283 283 284 284 284 285 284 283 282 281 281 282 282 282 282 282 281 281 281 281 280 280 280 281 281 280 279 278 276 275 275 274 273 271 271 271 272 271 270 270 270 270 268 268 268 268 270 267 272 277 280 282 283 276 273 274 271 270 269 268
283 282 281 281 282 283 284 284 283 282 281 281 282 281 280 280 280 280 280 280 280 280 280 280 279 279 279 278 277 277 276 274 273 272 271 271 270 271 271 270 269 268 269 269 268 267 266 266 266 271 268 273 277 280 282 282 278 278 274 271 270 269
279 278 276 277 278 280 282 282 281 280 279 280 278 278 278 279 278 279 279 279 279 278 278 278 277 278 277 277 276 276 275 273 272 271 271 271 271 270 270 270 269 268 268 269 269 268 266 265 264 268 272 271 275 277 280 282 282 281 276 274 271 271
277 276 274 274 274 275 278 279 279 278 278 277 277 277 277 277 276 277 277 277 277 277 277 276 276 276 276 276 275 275 275 272 271 271 270 270 270 270 270 271 270 269 269 268 268 269 268 266 264 263 267 273 274 276 277 279 281 282 282 277 274 273
275 276 275 272 272 273 274 275 278 278 276 274 275 276 276 275 276 276 276 276 276 276 275 275 274 274 274 274 275 276 275 274 272 272 270 269 269 269 270 270 268 267 267 267 268 269 270 266 264 264 263 267 270 272 275 277 278 279 280 280 278 277
275 274 275 275 271 270 271 271 273 273 273 274 274 274 275 275 276 276 276 276 275 274 274 275 274 273 272 272 272 273 273 273 271 271 270 268 268 268 268 268 268 268 267 267 268 269 268 266 262 263 261 262 263 264 266 269 271 276 278 277 277 278
276 273 272 275 272 269 269 270 270 268 270 271 273 273 274 275 276 276 275 275 274 274 273 274 271 272 272 272 272 272 271 270 271 271 271 269 269 269 268 268 268 268 268 268 269 267 263 266 263 263 262 262 262 263 264 265 267 268 271 273 275 275
274 272 272 272 270 269 269 269 268 265 270 271 271 274 275 275 273 271 271 270 271 272 271 273 272 272 272 271 270 271 272 272 270 271 271 269 267 270 270 269 269 269 269 267 267 266 266 266 266 265 268 265 268 265 264 264 265 267 269 273 276 274
272 272 271 271 269 270 270 268 268 266 267 267 269 273 275 273 272 270 269 270 270 269 269 270 270 268 269 269 269 268 266 269 273 271 268 267 272 275 276 275 269 265 265 267 267 267 268 269 268 272 274 274 274 275 275 273 272 272 270 272 276 276
270 270 270 270 268 269 269 269 267 267 266 268 268 271 272 271 271 270 269 269 270 269 268 267 267 267 267 266 266 266 266 265 266 274 276 275 273 274 275 277 277 277 275 269 266 267 274 275 276 276 275 276 276 277 277 277 277 276 275 275 272 272
269 270 271 269 267 268 267 268 266 267 266 265 268 269 270 271 272 271 270 269 265 268 266 265 265 264 265 263 263 265 264 264 265 266 272 275 276 276 276 276 276 277 277 277 274 268 264 271 275 276 276 277 277 277 277 277 278 277 277 276 276 270
270 269 268 266 266 266 266 266 265 264 265 264 264 266 268 268 270 269 266 266 266 266 266 265 265 265 265 263 263 261 262 264 264 266 266 265 274 276 277 277 277 277 277 278 278 278 275 272 273 275 276 276 277 277 277 277 278 278 278 277 274 271
268 268 267 266 266 266 265 265 261 260 260 262 262 264 265 265 265 265 265 265 265 265 264 265 265 264 263 263 262 262 262 262 263 264 263 261 260 265 270 274 277 277 277 278 278 278 278 278 277 276 276 276 276 277 277 277 276 278 279 277 273 273
268 267 266 266 265 265 264 261 258 258 257 261 261 263 263 262 264 262 264 264 264 263 264 263 263 263 261 262 262 262 262 263 262 263 262 262 263 264 265 261 265 272 276 275 276 277 278 278 278 278 277 276 277 277 277 277 274 273 274 275 275 273
265 264 263 263 264 264 263 259 257 257 257 258 260 262 262 262 262 262 263 262 263 262 262 262 263 263 263 263 262 262 261 261 260 262 261 260 260 261 260 260 261 263 268 274 275 276 276 277 277 277 278 277 277 277 277 273 272 272 272 272 273 272

ECMWFFLT1_sfc_thetae_075.txt.gz
Theta_e
289 290 291 292 294 295 296 295 294 294 294 293 292 291 290 289 289 289 289 289 288 288 287 286 286 286 285 285 284 283 283 283 283 283 283 282 282 282 282 281 281 281 281 281 281 281 281 281 280 280 280 280 279 279 279 279 280 279 279 279 279 278
289 289 290 291 292 293 294 294 293 292 293 292 291 291 290 289 288 288 288 288 288 287 287 286 286 285 285 284 283 283 283 283 282 282 281 282 282 282 281 281 281 281 281 281 281 281 280 280 280 280 279 279 279 279 279 279 279 278 278 278 278 278
288 288 289 290 291 292 293 293 292 292 292 291 291 289 288 288 288 288 288 287 287 287 286 285 285 284 284 283 283 283 283 282 282 282 282 282 281 281 281 281 281 281 281 280 280 280 279 279 279 279 279 279 278 278 278 278 278 278 278 278 277 277
287 287 288 289 289 290 291 292 292 291 291 291 290 289 288 287 287 287 288 287 287 286 286 285 284 284 283 283 282 282 282 281 281 281 281 281 281 281 281 281 280 280 280 280 280 279 279 279 279 278 278 278 278 277 278 278 278 277 277 277 276 276
287 287 288 288 289 290 291 290 291 291 290 290 289 288 288 287 287 287 287 286 286 285 285 284 284 283 282 282 282 281 281 281 280 281 281 280 280 281 280 280 280 279 280 279 279 279 278 279 278 278 277 278 278 277 277 277 277 277 276 276 276 276
286 287 287 287 288 289 289 290 290 291 290 290 289 288 288 287 287 286 286 286 285 285 284 284 283 282 282 281 282 281 280 280 280 280 280 280 280 280 280 280 279 279 279 279 279 278 278 278 278 277 277 278 278 277 277 277 277 277 277 277 276 275
285 286 287 288 288 289 289 290 290 290 290 289 289 289 288 287 287 286 285 285 284 284 283 283 283 282 281 281 281 280 280 280 280 280 280 280 279 280 279 279 279 279 279 279 279 278 278 278 277 277 277 277 278 277 277 277 277 277 277 276 276 276
286 286 287 287 288 288 289 289 289 289 289 289 289 288 288 287 286 286 285 284 284 283 283 283 282 282 281 281 281 280 280 280 280 280 280 280 279 279 279 279 279 279 279 279 279 278 278 278 277 277 277 277 277 277 277 277 276 276 276 276 276 276
285 286 286 287 288 288 289 289 289 289 289 288 288 288 288 287 286 285 285 284 284 283 283 283 282 282 282 281 281 280 280 280 280 280 280 280 279 279 279 279 279 279 279 278 278 278 278 277 277 277 276 276 276 276 276 276 276 276 276 276 276 276
285 285 286 286 287 288 288 289 289 289 288 288 288 287 287 287 286 285 285 284 284 283 283 283 283 282 282 281 281 280 280 280 280 280 280 280 279 279 279 278 278 278 278 278 278 278 277 277 277 276 276 276 276 276 276 276 276 276 276 275 276 276
285 285 285 286 286 287 287 288 288 288 288 288 287 287 287 286 286 285 285 284 284 284 283 283 283 283 282 282 281 281 280 281 281 280 280 280 279 279 279 279 279 278 277 277 277 277 277 277 276 276 276 275 276 276 276 276 276 276 275 275 275 275
286 286 285 285 286 287 287 287 288 288 287 287 287 286 287 286 285 285 285 285 284 284 284 283 283 282 282 282 281 281 281 281 280 280 280 279 279 279 279 279 278 278 277 277 277 276 276 276 276 277 279 278 276 276 276 276 276 276 276 275 275 275
286 285 285 285 286 286 287 288 288 288 287 287 286 286 286 286 285 285 285 285 285 284 284 283 283 283 282 282 282 282 281 281 280 280 280 279 279 279 278 278 278 277 277 277 276 276 276 276 276 279 281 281 280 277 277 276 276 276 276 276 275 275
286 286 286 286 286 286 287 287 288 287 287 287 286 286 285 285 285 285 285 285 285 284 283 283 283 282 282 282 282 281 281 281 280 280 280 279 279 278 278 278 278 278 277 277 276 276 275 276 278 281 282 282 282 280 277 277 276 276 276 276 275 275
287 287 287 287 286 286 287 287 287 287 287 287 286 285 284 285 285 285 285 285 285 284 284 284 283 283 283 282 282 281 281 280 280 279 279 279 279 278 278 278 278 277 277 276 276 275 276 275 280 281 283 283 283 282 279 277 277 276 276 276 275 275
289 288 288 288 287 287 287 287 287 287 287 287 286 285 284 284 284 285 285 285 285 284 284 284 283 283 283 282 282 281 280 280 279 280 280 279 279 278 278 278 278 277 276 276 276 276 276 275 279 282 283 284 284 284 281 277 277 277 276 276 275 275
290 288 287 287 286 286 286 286 287 286 286 285 285 285 284 284 284 284 285 285 285 285 284 284 283 283 283 282 282 281 280 280 280 280 280 279 279 278 278 278 277 277 277 277 276 276 275 275 280 283 284 285 285 285 283 277 277 276 276 276 275 275
291 289 288 286 286 285 285 285 286 285 285 285 285 284 284 284 284 284 284 284 284 284 284 284 283 283 282 282 281 281 280 280 280 279 280 279 279 279 278 278 278 277 277 277 276 276 275 275 281 283 284 285 286 286 284 279 277 276 275 275 275 275
289 288 286 285 285 285 285 285 285 285 284 284 284 284 284 284 284 284 284 284 284 284 284 284 283 283 282 282 281 281 280 280 280 280 279 279 279 278 278 278 278 278 277 277 276 276 276 276 280 283 284 285 286 286 283 281 278 277 276 275 275 274
285 285 285 284 284 284 284 284 285 284 283 283 283 283 283 283 284 284 284 284 284 284 284 284 284 283 283 282 281 281 281 281 281 280 279 279 278 278 278 278 277 277 277 277 276 276 276 276 278 282 284 285 286 285 283 282 279 278 277 277 276 274
285 284 284 284 283 283 283 284 284 283 283 283 282 283 283 283 283 283 284 284 284 284 284 284 284 283 283 282 282 281 281 281 281 280 279 279 279 278 278 278 277 277 277 277 277 278 277 277 278 282 283 284 286 285 283 282 280 279 278 277 277 276
283 283 283 283 283 282 283 283 283 283 282 282 282 282 283 283 284 285 285 285 284 284 284 284 283 283 283 282 282 282 281 281 280 280 279 279 279 279 278 278 278 277 277 277 277 277 277 277 277 278 283 284 285 286 284 282 280 279 278 277 277 277
284 283 283 283 282 282 283 283 283 282 282 282 281 282 283 284 284 285 284 284 284 284 283 284 284 283 283 283 282 282 281 281 281 280 279 279 279 279 278 277 277 277 277 276 276 276 276 276 275 276 280 283 284 285 285 282 281 280 280 279 278 277
282 282 281 281 282 282 282 283 282 282 282 281 281 282 283 284 284 284 284 284 283 283 283 283 283 284 283 283 282 281 281 281 281 280 280 279 278 278 277 276 276 276 275 274 274 274 274 275 276 274 278 281 283 284 285 283 282 281 280 279 278 277
282 281 281 281 281 282 283 283 282 281 281 281 282 283 283 284 284 284 284 283 283 283 283 283 283 283 283 282 282 281 281 280 279 278 278 277 276 276 275 274 274 273 273 273 273 272 272 272 273 277 275 279 281 283 284 285 284 284 281 278 277 277
280 280 279 281 281 282 283 283 282 282 282 282 283 283 283 283 283 283 283 283 283 282 282 282 282 282 282 282 281 281 279 277 277 276 276 275 275 274 274 273 272 272 272 272 273 272 272 271 271 275 277 276 279 281 282 283 284 284 282 279 278 278
279 279 279 279 280 282 283 283 282 281 282 282 283 283 283 283 283 283 282 282 282 282 282 281 281 280 279 279 279 278 277 275 274 274 272 273 273 273 273 273 272 272 273 273 273 273 273 272 271 270 274 277 278 279 281 282 282 283 283 281 281 280
278 278 278 276 277 279 279 281 282 281 282 281 282 282 283 282 282 282 281 281 280 280 278 277 276 277 277 277 278 278 277 275 275 275 273 273 273 273 273 273 272 272 272 272 273 273 273 271 270 270 269 273 276 277 279 280 281 281 281 281 281 281
278 277 277 276 273 275 275 276 278 281 279 279 280 280 281 281 280 279 277 277 276 276 276 276 276 275 275 275 276 276 275 275 275 275 273 273 273 273 273 273 272 272 272 272 272 272 271 269 269 269 268 267 269 270 272 275 276 279 279 279 278 279
278 277 276 275 273 273 274 275 275 276 276 275 276 277 278 278 277 277 276 275 275 275 276 276 272 274 275 274 275 275 274 274 275 275 274 273 274 273 272 272 272 272 272 272 272 271 269 270 269 269 268 267 266 267 268 268 269 270 271 273 274 275
277 277 276 274 272 272 271 270 270 271 274 274 274 276 277 276 275 275 273 273 274 273 274 275 274 275 274 274 273 273 274 275 274 275 274 271 274 275 274 273 273 273 273 273 272 271 270 270 270 271 273 270 271 268 267 266 267 267 268 270 274 272
277 275 274 273 272 272 271 269 268 268 270 272 273 275 275 274 273 273 272 272 273 272 272 272 272 271 273 273 273 272 268 272 276 274 274 271 274 277 278 277 273 272 271 271 272 272 273 272 270 276 277 277 277 276 276 274 273 273 270 271 274 274
275 274 273 272 271 271 270 269 268 268 268 270 272 274 274 274 274 272 271 271 271 272 272 271 271 270 270 271 272 271 271 269 269 278 278 277 276 277 279 279 279 278 276 272 270 269 276 277 277 278 278 278 278 278 278 278 278 278 277 277 274 273
275 275 273 272 272 271 269 268 266 266 266 267 270 273 274 274 274 273 272 271 270 271 271 271 271 270 270 269 269 270 270 271 269 268 275 278 277 278 278 279 279 279 279 278 276 270 267 273 277 277 278 278 279 279 279 279 279 279 279 279 279 275
275 273 272 272 271 270 269 267 265 265 265 265 268 272 274 273 274 272 271 270 270 270 270 269 269 269 269 268 267 267 268 269 269 270 268 270 277 278 278 278 279 279 279 279 280 280 277 275 276 278 279 279 279 279 279 279 279 279 280 280 277 275
273 272 272 271 270 269 268 266 263 262 261 263 266 271 273 272 272 272 271 270 270 269 269 268 268 268 268 268 268 268 268 268 269 269 269 268 265 267 272 275 277 277 277 278 279 279 279 279 279 279 279 279 279 279 279 279 278 279 279 278 276 275
272 271 270 270 269 268 267 263 261 260 260 262 265 268 268 268 268 267 266 266 267 268 268 267 268 267 266 266 265 265 265 265 263 265 264 265 266 265 265 261 262 268 273 273 274 276 277 277 278 278 278 278 279 279 280 280 277 275 275 276 276 275
271 269 268 268 267 265 263 260 260 259 259 260 264 267 267 266 267 267 267 266 266 265 266 266 265 265 265 264 263 262 262 262 263 264 262 262 261 261 260 261 261 260 265 271 272 274 275 276 276 276 277 277 278 278 278 275 274 274 273 273 274 273